#timestamp,LO_Frequency,Hit,StdDev 
1594292415.4,286046999.6,N
1594292435.3,286046994.9,N
1594292455.1,286046997.8,N
1594292475.8,286046997.5,N
1594292495.7,286046997.6,N
1594292515.5,286046995.5,N
1594292535.4,286046996.0,N
1594292555.2,286046993.9,N
1594292575.0,286046996.3,N
1594292575.9,286046996.3,N
1594292595.8,286046994.0,N
1594292615.6,286046994.7,N
1594292635.4,286046994.5,N
1594292655.3,286046994.2,N
1594292675.1,286046994.0,N
1594292695.9,286046995.8,N
1594292715.7,286046995.1,N
1594292735.5,286046996.2,N
1594292755.4,286046995.8,N
1594292775.2,286046993.6,Y
1594292795.1,286046997.2,P
1594292796.0,286046997.2,P
1594292815.8,286046999.4,N
1594292835.6,286046998.9,N
1594292855.5,286047000.7,N
1594292875.3,286047001.2,N
1594292895.1,286047001.2,N
1594292915.9,286047000.3,N
1594292935.7,286047000.6,N
1594292955.6,286047000.8,N
1594292975.4,286047000.1,N
1594292995.2,286047002.8,N
1594293015.1,286047000.6,N
1594293016.0,286047000.6,N
1594293035.8,286047001.1,N
1594293055.7,286047000.8,N
1594293075.5,286047002.8,N
1594293095.3,286047002.8,N
1594293115.2,286047002.7,N
1594293135.0,286047002.7,N
1594293135.9,286047002.7,N
1594293155.7,286046999.8,N
1594293175.6,286047002.7,N
1594293195.4,286047002.3,N
1594293215.3,286047001.7,N
1594293235.1,286047001.7,N
1594293255.8,286047004.3,N
1594293275.7,286047001.5,N
1594293295.5,286047001.8,N
1594293315.4,286047001.4,N
1594293335.2,286047003.4,N
1594293355.0,286047005.5,Y
1594293355.9,286047005.5,P
1594293375.8,286047001.7,N
1594293395.6,286047002.0,N
1594293415.5,286047002.0,N
1594293435.3,286047001.6,N
1594293455.1,286047002.4,N
1594293475.9,286047000.0,N
1594293495.7,286046999.8,N
1594293515.5,286047002.3,N
1594293535.4,286046999.9,N
1594293555.2,286047002.7,N
1594293575.1,286047002.5,N
1594293576.0,286047002.5,N
1594293595.8,286047002.0,N
1594293615.6,286047001.3,N
1594293635.5,286047001.8,N
1594293655.3,286047001.7,N
1594293675.2,286047002.2,N
1594293695.9,286047001.9,N
1594293715.7,286047002.1,N
1594293735.6,286047002.2,N
1594293755.4,286047004.0,Y
1594293775.2,286047002.5,P
1594293795.1,286047002.7,P
1594293796.0,286047002.7,P
1594293815.8,286047000.2,N
1594293835.7,286047000.5,N
1594293855.5,286046998.1,N
1594293875.3,286047000.2,N
1594293895.2,286046999.7,N
1594293915.0,286047000.0,N
1594293915.9,286047000.0,N
1594293935.8,286047002.4,N
1594293955.6,286047002.5,N
1594293975.4,286047002.7,N
1594293995.3,286047001.5,N
1594294015.1,286047001.4,N
1594294035.9,286047001.4,N
1594294055.7,286047004.0,Y
1594294075.5,286047002.6,P
1594294095.4,286047000.2,N
1594294115.2,286047000.5,N
1594294135.0,286047000.2,N
1594294136.0,286047000.2,N
1594294155.8,286047002.5,N
1594294175.6,286047000.3,N
1594294195.5,286047000.9,N
1594294215.3,286047001.2,N
1594294235.2,286047000.0,N
1594294255.9,286047000.1,N
1594294275.7,286047000.0,N
1594294295.6,286047002.8,Y
1594294315.4,286046999.8,P
1594294335.2,286046999.9,N
1594294355.1,286047000.0,N
1594294356.0,286047000.0,N
1594294375.8,286047000.5,N
1594294395.7,286046998.5,Y
1594294415.5,286046999.5,P
1594294435.4,286046999.4,N
1594294455.2,286046999.1,N
1594294475.0,286046999.1,N
1594294475.9,286046999.1,N
1594294495.8,286046999.4,N
1594294515.6,286046999.3,N
1594294535.5,286046998.8,Y
1594294555.3,286046998.5,P
1594294575.2,286047000.8,N
1594294595.9,286047000.5,N
1594294615.7,286047001.2,N
1594294635.6,286047000.2,N
1594294655.4,286047001.6,N
1594294675.2,286047001.4,N
1594294695.1,286047004.4,Y
1594294696.0,286047004.4,P
1594294715.8,286047001.8,N
1594294735.7,286047005.9,P
1594294755.5,286047004.4,N
1594294775.3,286047002.1,N
1594294795.2,286047001.4,N
1594294815.0,286047002.0,N
1594294815.9,286047002.0,N
1594294835.8,286047001.9,N
1594294855.6,286047002.5,N
1594294875.4,286047002.5,N
1594294895.3,286047002.8,N
1594294915.1,286047002.2,N
1594294935.9,286047002.3,N
1594294955.7,286046999.8,N
1594294975.5,286047000.5,N
1594294995.4,286047000.2,N
1594295015.2,286046999.8,N
1594295035.0,286047000.0,N
1594295055.2,286046999.7,N
1594295075.1,286047002.8,N
1594295076.0,286047002.8,N
1594295095.8,286047002.3,N
1594295115.7,286046999.7,N
1594295135.5,286046999.8,N
1594295155.3,286047000.9,N
1594295175.2,286046998.6,N
1594295195.0,286046998.7,N
1594295195.9,286046998.7,N
1594295215.7,286046999.1,N
1594295235.6,286046999.3,N
1594295255.4,286046999.2,N
1594295275.3,286046999.2,N
1594295295.1,286046996.9,N
1594295315.8,286046997.1,N
1594295335.7,286046997.7,N
1594295355.5,286046993.9,Y
1594295375.4,286046993.9,P
1594295395.2,286046991.7,N
1594295415.0,286046992.2,N
1594295415.9,286046992.2,N
1594295435.8,286046993.7,N
1594295455.6,286046995.8,N
1594295475.5,286046997.5,N
1594295495.3,286046997.2,N
1594295515.1,286046996.6,N
1594295535.9,286046999.0,N
1594295555.7,286046998.2,N
1594295575.5,286046999.1,N
1594295595.4,286046998.3,N
1594295615.2,286046999.2,N
1594295635.1,286046996.9,N
1594295636.0,286046996.9,N
1594295655.8,286046996.5,N
1594295675.6,286046998.9,N
1594295695.5,286046998.1,N
1594295715.3,286047001.2,N
1594295735.2,286046998.2,N
1594295755.9,286046998.5,N
1594295775.7,286046999.9,N
1594295795.6,286047000.7,N
1594295815.4,286046998.1,N
1594295835.2,286046998.1,N
1594295855.1,286046998.1,N
1594295856.0,286046998.1,N
1594295875.8,286046998.6,N
1594295895.7,286046999.0,N
1594295915.5,286046999.1,N
1594295935.3,286046999.4,N
1594295955.2,286046996.6,N
1594295975.0,286046996.8,N
1594295975.9,286046996.8,N
1594295995.8,286046994.5,Y
